Terminal Aerodrome Forecast
Issued by NWS Nashville, TN

Home | Current Version | Previous Version | Text Only | Print | Product List | Glossary On
Versions: 1 2 3 4 5 6 7 8 9 10 11 12 13 14 15 16 17 18 19 20 21 22 23 24 25 26 27 28 29 30 31
117
FTUS44 KOHX 202320
TAFBNA
TAF
KBNA 202320Z 2100/2124 18006KT P6SM BKN250
     FM211800 16008KT 5SM -SHRA OVC045
     FM212200 15007KT 3SM -SHRA OVC015=

USA.gov is the U.S. government's official web portal to all federal, state and local government web resources and services.